[[{"header":{"parameterUnit":"m.s-1","parameterCategory":1,"la1":30.2991,"la2":30.254,"lo1":-89.0895,"lo2":-89.0444,"dy":0.0017,"dx":0.0017,"nx":28,"ny":28,"refTime":"2023-10-07T09:00:00:Z","depth":0,"parameterNumber":2,"parameterNumberName":"U-component_of_WINDS"},"data":[0,0,0,0,0,0,0,0,0,0,0,0,0,0,0,0,0,0,0,0,0,0,0,0,0,0,0,0,0,0,0,0,0,0,0,0,0,0,0,0,0,0,0,0,0,0,0,0,0,0,0,0,0,0,0,0,0,0,-2.2604,-2.2605,0,-2.2647,-2.2648,-2.2648,-2.2548,-2.2544,-2.2541,-2.2538,-2.2583,-2.2587,-2.2592,0,0,0,0,0,0,0,0,0,0,0,0,0,-2.2435,-2.2438,-2.2604,-2.2605,-2.2605,-2.2647,-2.2648,-2.2648,-2.2548,-2.2544,-2.254,-2.2537,-2.2582,-2.2587,-2.2592,0,0,0,0,0,0,0,0,0,0,0,0,0,-2.2496,-2.2439,-2.2604,-2.256,-2.2557,-2.2647,-2.2648,-2.2648,-2.2549,-2.2544,-2.2539,-2.2535,-2.258,-2.2586,-2.2593,-2.2728,0,0,-2.2612,-2.2615,0,0,0,0,0,0,0,0,-2.2493,-2.2502,-2.2566,-2.2563,-2.256,-2.2587,-2.2604,-2.2675,-2.255,-2.2552,-2.2538,-2.2533,-2.2589,-2.2594,-2.2612,-2.273,-2.2732,-2.2612,-2.2616,-2.2619,-2.2621,0,0,0,0,0,0,0,-2.2489,-2.25,-2.2621,-2.2567,-2.2563,-2.2538,-2.2542,-2.2617,-2.2597,-2.2552,-2.2544,-2.2551,-2.2586,-2.2607,-2.2613,-2.2732,-2.2612,-2.2618,-2.2622,-2.2624,-2.2962,-2.2967,0,0,0,0,0,0,-2.249,-2.2497,-2.262,-2.2622,-2.2514,-2.2545,-2.2549,-2.2583,-2.2596,-2.2593,-2.2555,-2.2546,-2.2598,-2.2606,-2.2614,-2.2773,-2.2619,-2.2625,-2.2628,-2.2956,-2.2963,-2.2968,0,0,0,0,0,0,-2.2487,-2.2502,-2.2618,-2.2558,-2.2571,-2.2553,-2.2592,-2.2587,-2.2607,-2.2598,-2.2594,-2.258,-2.2595,-2.2605,-2.27,-2.2773,-2.2628,-2.2633,-2.295,-2.2958,-2.2966,-2.3093,0,0,0,0,0,0,-2.2482,-2.2501,-2.2553,-2.256,-2.2574,-2.2704,-2.2597,-2.2591,-2.2618,-2.2607,-2.2621,-2.2618,-2.2592,-2.2691,-2.2706,-2.2779,-2.2638,-2.2944,-2.2954,-2.2963,-2.3082,-2.3104,-2.3123,0,0,0,0,0,-2.2477,-2.2587,-2.2556,-2.2571,-2.2638,-2.2708,-2.2717,-2.2684,-2.2625,-2.2676,-2.267,-2.2618,-2.2762,-2.2702,-2.2718,-2.2794,-2.2939,-2.2951,-2.2962,-2.3073,-2.31,-2.3123,0,0,0,0,0,0,-2.259,-2.2587,-2.2553,-2.2669,-2.269,-2.2691,-2.2755,-2.2713,-2.2751,-2.274,-2.2697,-2.2701,-2.2804,-2.2808,-2.274,-2.2925,-2.2841,-2.2856,-2.2919,-2.2945,-2.2965,-2.2963,-2.2643,0,0,0,0,0,-2.2628,-2.2685,-2.268,-2.2783,-2.2795,-2.2774,-2.2803,-2.2775,-2.2795,-2.2804,-2.2804,-2.2826,-2.2876,-2.291,-2.2955,-2.3081,-2.3083,-2.3141,-2.3162,-2.3178,-2.3193,-2.326,-2.3286,-2.3007,-2.3007,-2.3006,0,0,-2.2709,-2.2714,-2.2753,-2.2806,-2.2819,-2.2879,-2.2782,-2.285,-2.2894,-2.2814,-2.2904,-2.2905,-2.2926,-2.3037,-2.3086,-2.3043,-2.327,-2.3193,-2.3207,-2.3213,-2.3275,-2.3301,-2.3325,-2.3015,-2.3013,-2.3012,0,0,-2.2886,-2.2896,-2.2983,-2.2997,-2.3017,-2.3002,-2.3023,-2.3031,-2.3029,-2.3118,-2.3059,-2.311,-2.3197,-2.3215,-2.3235,-2.3417,-2.3371,-2.3433,-2.3541,-2.3606,-2.3628,-2.3648,-2.3714,-2.3738,-2.3447,-2.3447,-2.3447,0,-2.2984,-2.3072,-2.3033,-2.3105,-2.313,-2.3059,-2.3147,-2.3163,-2.3197,-2.3216,-2.3167,-2.3275,-2.3284,-2.3398,-2.3442,-2.346,-2.3483,-2.3433,-2.3628,-2.3647,-2.3665,-2.3727,-2.3752,-2.3455,-2.3454,-2.3453,-2.3452,0,-2.3192,-2.3254,-2.3321,-2.3356,-2.3388,-2.3468,-2.3441,-2.3478,-2.3447,-2.3437,-2.3528,-2.3536,-2.3582,-2.3606,-2.3577,-2.3716,-2.3689,-2.3635,-2.355,-2.37,-2.3758,-2.3781,-2.3466,-2.3463,-2.3461,-2.3459,0,0,-2.3445,-2.3455,-2.3481,-2.3496,-2.3512,-2.3559,-2.3635,-2.3679,-2.3712,-2.3737,-2.3801,-2.3875,-2.3825,-2.3848,-2.3819,-2.3877,-2.4021,-2.3815,-2.3815,-2.3855,-2.4176,-2.4219,-2.4247,-2.3989,-2.3994,-2.3997,-2.4175,0,-2.3622,-2.3752,-2.3718,-2.3849,-2.3906,-2.3838,-2.3903,-2.3921,-2.3912,-2.3959,-2.3949,-2.4004,-2.3933,-2.3946,-2.4,-2.3993,-2.4086,-2.3979,-2.4049,-2.4052,-2.4048,-2.4277,-2.4322,-2.449,-2.4197,-2.4201,-2.4204,0,-2.3846,-2.388,-2.4016,-2.4022,-2.4045,-2.4105,-2.4142,-2.4188,-2.4205,-2.4195,-2.422,-2.4179,-2.4254,-2.4166,-2.4268,-2.4196,-2.4222,-2.4223,-2.4228,-2.4236,-2.4139,-2.4293,-2.4543,-2.4569,-2.4239,-2.4236,-2.4234,0,-2.402,-2.4098,-2.419,-2.4204,-2.4214,-2.4257,-2.4263,-2.4276,-2.4304,-2.4336,-2.4355,-2.4395,-2.4418,-2.445,-2.4422,-2.436,-2.4529,-2.4438,-2.4523,-2.4524,-2.4564,-2.4563,-2.4824,-2.4578,-2.4577,-2.4577,-2.4576,0,-2.4222,-2.4308,-2.4268,-2.4325,-2.4419,-2.4378,-2.4473,-2.447,-2.4482,-2.4537,-2.4479,-2.4532,-2.449,-2.4539,-2.4516,-2.4605,-2.4615,-2.4609,-2.4603,-2.4616,-2.4617,-2.4634,-2.4623,-2.4583,-2.4582,-2.4581,-2.4579,0,-2.4433,-2.4409,-2.4505,-2.4505,-2.4507,-2.4577,-2.4576,-2.4629,-2.4615,-2.4685,-2.4699,-2.4678,-2.4733,-2.4706,-2.4763,-2.4748,-2.4863,-2.4839,-2.4858,-2.4852,-2.4939,-2.4932,-2.5223,-2.5259,-2.4988,-2.499,-2.4992,0,-2.4565,-2.463,-2.4637,-2.4669,-2.4679,-2.4732,-2.476,-2.4721,-2.4754,-2.4777,-2.4827,-2.4876,-2.4914,-2.5004,-2.4994,-2.5037,-2.5015,-2.5114,-2.5021,-2.5032,-2.5019,-2.5016,-2.5023,-2.5134,-2.5137,-2.5139,-2.5141,0,-2.4803,-2.4787,-2.4831,-2.487,-2.4906,-2.4935,-2.4959,-2.4989,-2.4951,-2.499,-2.5044,-2.5074,-2.5131,-2.5181,-2.5218,-2.5223,-2.5177,-2.517,-2.5192,-2.5208,-2.5216,-2.5214,-2.491,-2.5164,-2.5162,-2.516,-2.5159,-2.5158,-2.4979,-2.5034,-2.5047,-2.5097,-2.5111,-2.5135,-2.5184,-2.5176,-2.5221,-2.5264,-2.5238,-2.5303,-2.5316,-2.5361,-2.5373,-2.5422,-2.5383,-2.5415,-2.5423,-2.5433,-2.5445,-2.5206,-2.5429,-2.5428,-2.5427,-2.5427,-2.5426,0,-2.5215,-2.522,-2.5266,-2.5302,-2.5341,-2.5292,-2.5316,-2.5352,-2.541,-2.5427,-2.5464,-2.5527,-2.5575,-2.5567,-2.5611,-2.5652,-2.5632,-2.5665,-2.5662,-2.5665,-2.5477,-2.5454,-2.568,-2.568,-2.568,-2.568,-2.568,-2.568,-2.5343,-2.5433,-2.5419,-2.5514,-2.5518,-2.5581,-2.5598,-2.562,-2.5633,-2.5706,-2.5745,-2.5739,-2.5746,-2.5789,-2.5831,-2.5827,-2.5847,-2.5888,-2.5877,-2.5703,-2.5678,-2.5654,-2.5632,-2.5892,-2.5892,-2.6061,-2.6062,-2.6063]},{"header":{"parameterUnit":"m.s-1","parameterCategory":1,"la1":30.2991,"la2":30.254,"lo1":-89.0895,"lo2":-89.0444,"dy":0.0017,"dx":0.0017,"nx":28,"ny":28,"refTime":"2023-10-07T09:00:00:Z","depth":0,"parameterNumber":3,"parameterNumberName":"V-component_of_WINDS"},"data":[0,0,0,0,0,0,0,0,0,0,0,0,0,0,0,0,0,0,0,0,0,0,0,0,0,0,0,0,0,0,0,0,0,0,0,0,0,0,0,0,0,0,0,0,0,0,0,0,0,0,0,0,0,0,0,0,0,0,-7.5862,-7.5863,0,-7.5969,-7.597,-7.5972,-7.5843,-7.5838,-7.5834,-7.5829,-7.5932,-7.5939,-7.5946,0,0,0,0,0,0,0,0,0,0,0,0,0,-7.5539,-7.5545,-7.5862,-7.5863,-7.5865,-7.5969,-7.5971,-7.5972,-7.5844,-7.5838,-7.5832,-7.5827,-7.593,-7.5938,-7.5947,0,0,0,0,0,0,0,0,0,0,0,0,0,-7.5666,-7.5548,-7.5862,-7.5814,-7.581,-7.5969,-7.5971,-7.5972,-7.5845,-7.5838,-7.5831,-7.5824,-7.5927,-7.5937,-7.5948,-7.6157,0,0,-7.5981,-7.5985,0,0,0,0,0,0,0,0,-7.5659,-7.5678,-7.5819,-7.5817,-7.5814,-7.5886,-7.5894,-7.6034,-7.5847,-7.5832,-7.5829,-7.5821,-7.5922,-7.5933,-7.5968,-7.6162,-7.6166,-7.5982,-7.5988,-7.5993,-7.5996,0,0,0,0,0,0,0,-7.565,-7.5672,-7.5904,-7.5821,-7.5818,-7.5784,-7.5794,-7.592,-7.5915,-7.5832,-7.5823,-7.5838,-7.5919,-7.5958,-7.597,-7.6168,-7.5981,-7.5991,-7.5998,-7.6002,-7.6536,-7.6543,0,0,0,0,0,0,-7.5648,-7.5666,-7.5901,-7.5907,-7.5717,-7.5796,-7.5807,-7.587,-7.5914,-7.5913,-7.5844,-7.5832,-7.5943,-7.5957,-7.5973,-7.6219,-7.5993,-7.6003,-7.6009,-7.6528,-7.6538,-7.6546,0,0,0,0,0,0,-7.5642,-7.567,-7.5896,-7.5784,-7.5811,-7.5809,-7.588,-7.5876,-7.5915,-7.5923,-7.592,-7.5886,-7.5938,-7.5958,-7.6112,-7.6221,-7.6008,-7.6017,-7.6519,-7.6531,-7.6542,-7.6716,0,0,0,0,0,0,-7.5633,-7.5669,-7.575,-7.5787,-7.5817,-7.6037,-7.5887,-7.5883,-7.5934,-7.5919,-7.5961,-7.5961,-7.5934,-7.6097,-7.6123,-7.6232,-7.6026,-7.6509,-7.6525,-7.6538,-7.67,-7.6732,-7.6759,0,0,0,0,0,-7.5622,-7.5793,-7.5755,-7.5784,-7.5919,-7.6044,-7.606,-7.6028,-7.5944,-7.6024,-7.6029,-7.5959,-7.6205,-7.6114,-7.6142,-7.6256,-7.6502,-7.652,-7.6537,-7.6687,-7.6726,-7.6758,0,0,0,0,0,0,-7.5766,-7.5797,-7.5755,-7.5944,-7.5993,-7.6022,-7.6122,-7.607,-7.6142,-7.6124,-7.6079,-7.6089,-7.6254,-7.627,-7.6168,-7.646,-7.6339,-7.6363,-7.6444,-7.648,-7.6509,-7.6502,-7.6035,0,0,0,0,0,-7.5821,-7.5922,-7.5942,-7.6107,-7.6134,-7.6125,-7.6177,-7.6149,-7.6196,-7.6215,-7.6231,-7.6278,-7.6365,-7.6423,-7.6504,-7.6702,-7.6708,-7.6794,-7.6823,-7.6847,-7.6868,-7.6973,-7.7011,-7.6603,-7.6603,-7.6603,0,0,-7.5933,-7.5962,-7.6029,-7.6137,-7.6171,-7.6274,-7.6142,-7.6257,-7.6333,-7.6231,-7.6379,-7.6393,-7.6441,-7.6618,-7.6697,-7.6637,-7.6982,-7.687,-7.6889,-7.6897,-7.6995,-7.7033,-7.7067,-7.6615,-7.6613,-7.6611,0,0,-7.6191,-7.6224,-7.6365,-7.6402,-7.6456,-7.6449,-7.6483,-7.652,-7.6526,-7.6674,-7.66,-7.6687,-7.684,-7.6877,-7.6916,-7.7188,-7.7126,-7.7216,-7.7369,-7.7471,-7.7503,-7.7531,-7.7627,-7.7663,-7.7237,-7.7237,-7.7237,0,-7.6323,-7.6478,-7.6443,-7.6564,-7.6613,-7.6528,-7.6669,-7.6706,-7.6783,-7.6818,-7.675,-7.6939,-7.6965,-7.7149,-7.7216,-7.7251,-7.7286,-7.7211,-7.7502,-7.753,-7.7555,-7.7646,-7.7683,-7.7247,-7.7246,-7.7245,-7.7244,0,-7.6638,-7.6747,-7.6853,-7.6933,-7.6993,-7.7123,-7.7105,-7.7171,-7.7136,-7.7136,-7.7286,-7.7315,-7.7401,-7.7442,-7.7409,-7.7621,-7.7582,-7.7509,-7.7387,-7.7605,-7.769,-7.7725,-7.7262,-7.7259,-7.7256,-7.7253,0,0,-7.699,-7.7048,-7.7088,-7.7123,-7.7176,-7.7258,-7.7383,-7.7469,-7.7525,-7.7581,-7.7683,-7.7814,-7.7747,-7.7791,-7.7761,-7.7851,-7.8063,-7.7766,-7.7766,-7.782,-7.8298,-7.8353,-7.8394,-7.8023,-7.8029,-7.8035,-7.8294,0,-7.7248,-7.7468,-7.7439,-7.7649,-7.7748,-7.7669,-7.7778,-7.7821,-7.7823,-7.7905,-7.7906,-7.8,-7.7904,-7.793,-7.8016,-7.802,-7.8159,-7.8,-7.8116,-7.812,-7.8106,-7.8438,-7.8497,-7.874,-7.8327,-7.8332,-7.8336,0,-7.7578,-7.7649,-7.7869,-7.7907,-7.7947,-7.8046,-7.8122,-7.8202,-7.8248,-7.8243,-7.8294,-7.8248,-7.837,-7.8247,-7.8414,-7.8307,-7.8353,-7.8362,-7.837,-7.8379,-7.8242,-7.8456,-7.8817,-7.8853,-7.8388,-7.8384,-7.838,0,-7.7812,-7.7961,-7.8113,-7.8145,-7.8193,-7.8264,-7.8287,-7.8326,-7.8379,-7.8444,-7.8478,-7.8556,-7.8599,-7.8659,-7.8634,-7.8547,-7.8806,-7.868,-7.8804,-7.8805,-7.8862,-7.8858,-7.9235,-7.8892,-7.8892,-7.8891,-7.889,0,-7.8103,-7.8241,-7.8219,-7.8312,-7.8463,-7.8428,-7.8578,-7.859,-7.8626,-7.8718,-7.8653,-7.874,-7.8703,-7.8787,-7.8768,-7.8909,-7.8928,-7.8926,-7.8919,-7.8932,-7.8932,-7.8961,-7.8943,-7.89,-7.8898,-7.8896,-7.8895,0,-7.839,-7.8381,-7.854,-7.8573,-7.8585,-7.8695,-7.8721,-7.8807,-7.8804,-7.8922,-7.8947,-7.8942,-7.9038,-7.9019,-7.9124,-7.911,-7.9287,-7.926,-7.9273,-7.9266,-7.939,-7.9379,-7.9797,-7.985,-7.9474,-7.9478,-7.9481,0,-7.8576,-7.8681,-7.8726,-7.8784,-7.8813,-7.8907,-7.8962,-7.893,-7.8989,-7.905,-7.9128,-7.9218,-7.9289,-7.9445,-7.9449,-7.9528,-7.9501,-7.9642,-7.9512,-7.9522,-7.9502,-7.9497,-7.9506,-7.9668,-7.9672,-7.9676,-7.9679,0,-7.8907,-7.8898,-7.898,-7.9062,-7.9129,-7.919,-7.9245,-7.9296,-7.9269,-7.9338,-7.9436,-7.9491,-7.9599,-7.9688,-7.9762,-7.9782,-7.9726,-7.972,-7.9752,-7.9766,-7.9769,-7.9769,-7.9342,-7.971,-7.9707,-7.9705,-7.9703,-7.9702,-7.9149,-7.9238,-7.9284,-7.9377,-7.9416,-7.9469,-7.9551,-7.956,-7.9642,-7.9729,-7.9704,-7.9816,-7.9857,-7.9951,-7.998,-8.0065,-8.0012,-8.0059,-8.0071,-8.0083,-8.0098,-7.9757,-8.0078,-8.0077,-8.0076,-8.0075,-8.0075,0,-7.9476,-7.9502,-7.9589,-7.9669,-7.9742,-7.9685,-7.9742,-7.9807,-7.9907,-7.9952,-8.0023,-8.0135,-8.0222,-8.0233,-8.0315,-8.038,-8.0356,-8.0402,-8.0397,-8.0402,-8.0141,-8.0105,-8.042,-8.042,-8.042,-8.042,-8.042,-8.042,-7.9655,-7.9803,-7.9799,-7.9964,-7.9987,-8.0098,-8.0136,-8.0183,-8.0219,-8.0348,-8.0421,-8.0429,-8.046,-8.0543,-8.0619,-8.062,-8.0652,-8.0709,-8.0699,-8.0455,-8.0421,-8.0388,-8.0353,-8.0716,-8.0716,-8.0953,-8.0955,-8.0957]}]]